This is the latest recevied weather packets stored in our database for station/object OK2ILA-13. If no packets are shown the sender has not sent any weather packets the latest 10 day(s).
| Time | Temp. | Humidity | Pressure | Rain* | Wind** | Luminosity | Snow |
|---|---|---|---|---|---|---|---|
| 1777341612 | 4.44° C | 42% | 1020.5 hPa | - | - | - | - |
| 1777340413 | 3.89° C | 43% | 1020.4 hPa | - | - | - | - |
| 1777339813 | 3.33° C | 44% | 1020.5 hPa | - | - | - | - |
| 1777339213 | 3.89° C | 44% | 1020.6 hPa | - | - | - | - |
| 1777338614 | 3.89° C | 44% | 1020.5 hPa | - | - | - | - |
| 1777338015 | 3.89° C | 43% | 1020.5 hPa | - | - | - | - |
| 1777337415 | 3.89° C | 43% | 1020.5 hPa | - | - | - | - |
| 1777336815 | 4.44° C | 42% | 1020.4 hPa | - | - | - | - |
| 1777336215 | 4.44° C | 42% | 1020.6 hPa | - | - | - | - |
| 1777335615 | 4.44° C | 41% | 1020.5 hPa | - | - | - | - |
| 1777335016 | 5° C | 40% | 1020.6 hPa | - | - | - | - |
| 1777334416 | 5° C | 39% | 1020.6 hPa | - | - | - | - |
| 1777333817 | 5.56° C | 37% | 1020.7 hPa | - | - | - | - |
| 1777333218 | 5.56° C | 37% | 1020.7 hPa | - | - | - | - |
| 1777332618 | 6.11° C | 36% | 1020.7 hPa | - | - | - | - |
| 1777332018 | 6.11° C | 36% | 1020.7 hPa | - | - | - | - |
| 1777331418 | 6.11° C | 36% | 1020.8 hPa | - | - | - | - |
| 1777330818 | 6.11° C | 36% | 1020.8 hPa | - | - | - | - |
| 1777330218 | 6.11° C | 36% | 1020.9 hPa | - | - | - | - |
| 1777329619 | 6.11° C | 37% | 1020.8 hPa | - | - | - | - |
| 1777329020 | 6.11° C | 37% | 1020.7 hPa | - | - | - | - |
| 1777328421 | 5.56° C | 37% | 1020.8 hPa | - | - | - | - |
| 1777327821 | 5.56° C | 37% | 1020.8 hPa | - | - | - | - |
| 1777327221 | 5.56° C | 37% | 1020.8 hPa | - | - | - | - |
| 1777326622 | 6.11° C | 37% | 1020.8 hPa | - | - | - | - |
* Rain since midnight (hover to see other rain measurements)
** Current wind speed in m/s (hover to see current wind gust speed)